Volver al catálogo

ONEWEB-0579

ActivoComunicacionesPO
NORAD 56068·PAYLOAD·🇬🇧 United Kingdom

Lanzado Mar 26, 2023 desde Satish Dhawan Space Centre

Loading…

Próximos Pases (próximas 24 horas)

TLE

ActualizadoSource: CelesTrak SupGP

Época: Sep 14, 2026, 17:25 UTC

1 56068C 23043Y   26257.72583750  .00001006  00000+0  24395-2 0  2574
2 56068  87.9283 226.1516 0002238  76.9528 316.7897 13.21822493    16

Sigue ONEWEB-0579 en tiempo real con AllMySat

Download on the App Store